CW3077 Weather Reports


Display with metric or nautical units.
time (UTC)temp
F
wind
direction
speed
MPH
gust
MPH
rain 1hr
in
rain 24hr
in
rain mn
in
humidity
%
barometer
mb
20260902185016 102 23 3.0 8.0 0.00 0.00 0.00 37 1014.9
20260902184537 101 293 2.0 4.0 0.00 0.00 0.00 38 1015.0
20260902184017 101 293 2.0 8.0 0.00 0.00 0.00 38 1015.2
20260902183517 100 338 3.0 7.0 0.00 0.00 0.00 39 1015.2
20260902183017 99 0 2.0 7.0 0.00 0.00 0.00 41 1015.3
20260902182517 98 315 3.0 7.0 0.00 0.00 0.00 43 1015.1
20260902182017 99 315 2.0 7.0 0.00 0.00 0.00 40 1015.4
20260902181517 100 45 2.0 5.0 0.00 0.00 0.00 40 1015.4
20260902181057 100 315 1.0 3.0 0.00 0.00 0.00 40 1015.6
20260902180517 99 315 3.0 8.0 0.00 0.00 0.00 41 1015.7
20260902180017 98 225 2.0 7.0 0.00 0.00 0.00 43 1015.9
20260902175517 97 225 3.0 7.0 0.00 0.00 0.00 43 1015.8
20260902175037 99 158 3.0 10.0 0.00 0.00 0.00 42 1016.0
20260902174517 101 113 3.0 9.0 0.00 0.00 0.00 41 1016.1
20260902174017 100 180 4.0 10.0 0.00 0.00 0.00 41 1016.2
20260902173517 99 180 3.0 6.0 0.00 0.00 0.00 42 1016.4
20260902173017 98 225 3.0 7.0 0.00 0.00 0.00 43 1016.4
20260902172517 98 248 3.0 8.0 0.00 0.00 0.00 42 1016.3
20260902172016 99 225 2.0 6.0 0.00 0.00 0.00 43 1016.5
20260902171517 98 248 3.0 6.0 0.00 0.00 0.00 42 1016.6
20260902171016 98 270 2.0 6.0 0.00 0.00 0.00 43 1016.6
20260902170517 97 225 2.0 5.0 0.00 0.00 0.00 44 1016.6
20260902170016 97 203 2.0 9.0 0.00 0.00 0.00 44 1016.7
20260902165516 97 0 2.0 5.0 0.00 0.00 0.00 45 1016.7
20260902165017 96 270 3.0 8.0 0.00 0.00 0.00 46 1016.9
20260902164516 97 225 3.0 8.0 0.00 0.00 0.00 45 1017.1
20260902164018 97 225 4.0 9.0 0.00 0.00 0.00 42 1017.0
20260902163537 96 293 3.0 9.0 0.00 0.00 0.00 45 1017.0
20260902163017 96 315 3.0 8.0 0.00 0.00 0.00 46 1017.1
20260902162557 95 270 2.0 7.0 0.00 0.00 0.00 46 1017.1
20260902162016 95 270 2.0 7.0 0.00 0.00 0.00 46 1017.0
20260902161517 94 270 4.0 8.0 0.00 0.00 0.00 47 1017.0
20260902161017 94 270 5.0 10.0 0.00 0.00 0.00 46 1016.9
20260902160516 94 293 3.0 7.0 0.00 0.00 0.00 48 1017.0
20260902160019 94 270 2.0 7.0 0.00 0.00 0.00 51 1016.9
20260902155517 93 225 3.0 8.0 0.00 0.00 0.00 51 1017.0
20260902155017 93 270 4.0 7.0 0.00 0.00 0.00 49 1017.0
20260902154516 93 248 3.0 8.0 0.00 0.00 0.00 50 1016.8
20260902154016 92 270 3.0 7.0 0.00 0.00 0.00 52 1017.0
20260902153516 92 293 2.0 6.0 0.00 0.00 0.00 53 1017.1
20260902153017 91 315 2.0 6.0 0.00 0.00 0.00 55 1017.0
20260902152516 91 248 2.0 5.0 0.00 0.00 0.00 57 1017.1
20260902152037 91 248 2.0 4.0 0.00 0.00 0.00 55 1017.1
20260902151516 90 248 3.0 7.0 0.00 0.00 0.00 55 1017.1
20260902151016 90 293 1.0 4.0 0.00 0.00 0.00 58 1017.2
20260902150516 89 293 2.0 5.0 0.00 0.00 0.00 59 1017.1
20260902150016 89 248 1.0 4.0 0.00 0.00 0.00 57 1017.1
20260902145517 88 248 1.0 4.0 0.00 0.00 0.00 58 1017.2
20260902145016 88 248 1.0 3.0 0.00 0.00 0.00 60 1017.1
20260902144516 87 248 2.0 7.0 0.00 0.00 0.00 62 1017.1
20260902144016 87 248 2.0 6.0 0.00 0.00 0.00 60 1017.3
20260902143516 87 225 4.0 8.0 0.00 0.00 0.00 61 1017.1
20260902143016 86 248 3.0 9.0 0.00 0.00 0.00 61 1017.1
20260902142516 86 225 4.0 7.0 0.00 0.00 0.00 63 1017.3
20260902142016 85 270 3.0 6.0 0.00 0.00 0.00 63 1017.3
20260902141536 85 248 2.0 9.0 0.00 0.00 0.00 64 1017.3
20260902141016 84 293 3.0 9.0 0.00 0.00 0.00 65 1017.0
20260902140516 84 270 2.0 4.0 0.00 0.00 0.00 67 1017.0
20260902140036 83 270 3.0 7.0 0.00 0.00 0.00 69 1016.9
20260902135516 82 270 2.0 6.0 0.00 0.00 0.00 69 1016.7
20260902135036 82 248 2.0 6.0 0.00 0.00 0.00 71 1016.8
20260902134517 81 248 3.0 5.0 0.00 0.00 0.00 71 1016.8
20260902134016 80 203 2.0 5.0 0.00 0.00 0.00 72 1016.8
20260902133517 80 180 2.0 6.0 0.00 0.00 0.00 74 1016.7
20260902133036 79 158 1.0 4.0 0.00 0.00 0.00 75 1016.6
20260902132516 79 158 1.0 4.0 0.00 0.00 0.00 75 1016.6
20260902132016 78 0.0 0.0 0.00 0.00 0.00 77 1016.6
20260902131517 77 0.0 3.0 0.00 0.00 0.00 78 1016.4
20260902131016 77 0.0 3.0 0.00 0.00 0.00 78 1016.5
20260902130556 77 0.0 0.0 0.00 0.00 0.00 78 1016.5
20260902130036 77 0.0 0.0 0.00 0.00 0.00 79 1016.4
20260902125516 77 0.0 1.0 0.00 0.00 0.00 79 1016.4
20260902125036 77 0.0 0.0 0.00 0.00 0.00 78 1016.2
20260902124536 77 0.0 0.0 0.00 0.00 0.00 78 1016.3
20260902124016 77 0.0 0.0 0.00 0.00 0.00 78 1016.2
20260902123516 77 0.0 0.0 0.00 0.00 0.00 77 1016.2
20260902123016 77 0.0 0.0 0.00 0.00 0.00 77 1016.1
20260902122516 77 0.0 0.0 0.00 0.00 0.00 77 1016.2
20260902122016 77 0.0 0.0 0.00 0.00 0.00 77 1016.1
20260902121516 77 0.0 0.0 0.00 0.00 0.00 77 1016.0
20260902121016 77 0.0 0.0 0.00 0.00 0.00 76 1016.0
20260902120516 77 0.0 0.0 0.00 0.00 0.00 76 1016.1
20260902120056 78 0.0 0.0 0.00 0.00 0.00 76 1016.1
20260902115516 78 0.0 0.0 0.00 0.00 0.00 76 1016.1
20260902115016 78 0.0 0.0 0.00 0.00 0.00 76 1016.1
20260902114516 78 0.0 0.0 0.00 0.00 0.00 75 1016.1
20260902114016 78 0.0 0.0 0.00 0.00 0.00 75 1016.0
20260902113516 78 0.0 1.0 0.00 0.00 0.00 75 1016.1
20260902113016 78 0.0 2.0 0.00 0.00 0.00 75 1016.0
20260902112516 78 0.0 2.0 0.00 0.00 0.00 75 1015.9
20260902112016 78 158 1.0 3.0 0.00 0.00 0.00 75 1015.7
20260902111516 78 158 1.0 3.0 0.00 0.00 0.00 75 1015.8
20260902111016 78 158 2.0 4.0 0.00 0.00 0.00 75 1015.8
20260902110516 78 158 1.0 3.0 0.00 0.00 0.00 75 1015.9
20260902110016 78 135 1.0 4.0 0.00 0.00 0.00 76 1015.8
20260902105516 78 135 1.0 2.0 0.00 0.00 0.00 77 1015.8
20260902105016 78 135 1.0 3.0 0.00 0.00 0.00 77 1015.7
20260902104516 77 113 1.0 3.0 0.00 0.00 0.00 78 1015.9
20260902104037 77 0.0 0.0 0.00 0.00 0.00 78 1016.0
20260902103537 77 0.0 0.0 0.00 0.00 0.00 78 1015.8
20260902103017 78 0.0 0.0 0.00 0.00 0.00 78 1015.9
20260902102516 78 0.0 0.0 0.00 0.00 0.00 78 1015.9
20260902102016 78 0.0 0.0 0.00 0.00 0.00 78 1015.8
20260902101516 78 0.0 0.0 0.00 0.00 0.00 77 1015.8
20260902101016 78 0.0 0.0 0.00 0.00 0.00 77 1015.8
20260902100516 78 0.0 0.0 0.00 0.00 0.00 76 1015.8
20260902100016 78 0.0 0.0 0.00 0.00 0.00 76 1015.9
20260902095516 79 0.0 0.0 0.00 0.00 0.00 76 1015.9
20260902095016 79 0.0 0.0 0.00 0.00 0.00 75 1016.0
20260902094515 79 0.0 0.0 0.00 0.00 0.00 76 1016.1
20260902094016 79 0.0 0.0 0.00 0.00 0.00 76 1016.0
20260902093516 79 0.0 0.0 0.00 0.00 0.00 75 1016.1
20260902093016 79 0.0 0.0 0.00 0.00 0.00 75 1016.2
20260902092517 79 0.0 0.0 0.00 0.00 0.00 75 1016.0
20260902092016 79 0.0 0.0 0.00 0.00 0.00 75 1016.1
20260902091516 79 0.0 0.0 0.00 0.00 0.00 75 1016.2
20260902091016 79 0.0 0.0 0.00 0.00 0.00 75 1016.1
20260902090516 79 0.0 0.0 0.00 0.00 0.00 75 1016.2
20260902090016 79 0.0 0.0 0.00 0.00 0.00 74 1016.0
20260902085516 79 0.0 3.0 0.00 0.00 0.00 74 1016.0
20260902085015 79 113 1.0 4.0 0.00 0.00 0.00 74 1016.1
20260902084516 80 0.0 1.0 0.00 0.00 0.00 73 1016.2
20260902084015 80 0.0 2.0 0.00 0.00 0.00 72 1016.2
20260902083515 80 113 1.0 2.0 0.00 0.00 0.00 72 1016.1
20260902083016 80 113 1.0 3.0 0.00 0.00 0.00 72 1016.1
20260902082536 80 113 1.0 2.0 0.00 0.00 0.00 72 1016.2
20260902082015 80 113 1.0 3.0 0.00 0.00 0.00 72 1016.3
20260902081515 80 90 1.0 4.0 0.00 0.00 0.00 71 1016.3
20260902081015 80 90 1.0 3.0 0.00 0.00 0.00 71 1016.2
20260902080536 80 90 1.0 3.0 0.00 0.00 0.00 71 1016.4
20260902080016 81 90 1.0 3.0 0.00 0.00 0.00 71 1016.6
20260902075515 81 90 1.0 2.0 0.00 0.00 0.00 70 1016.4
20260902075016 81 90 2.0 4.0 0.00 0.00 0.00 70 1016.5
20260902074515 81 90 2.0 4.0 0.00 0.00 0.00 70 1016.4
20260902074015 81 90 2.0 4.0 0.00 0.00 0.00 69 1016.5
20260902073516 81 90 1.0 3.0 0.00 0.00 0.00 69 1016.5
20260902073015 81 90 1.0 3.0 0.00 0.00 0.00 69 1016.4
20260902072517 82 90 1.0 3.0 0.00 0.00 0.00 68 1016.3
20260902072036 82 90 1.0 2.0 0.00 0.00 0.00 68 1016.4
20260902071536 82 0.0 2.0 0.00 0.00 0.00 68 1016.3
20260902071015 82 0.0 2.0 0.00 0.00 0.00 67 1016.6
20260902070535 82 0.0 0.0 0.00 0.00 0.00 67 1016.6
20260902070016 82 0.0 2.0 0.00 0.00 0.00 67 1016.5
20260902065536 82 90 1.0 4.0 0.00 0.00 0.00 66 1016.4
20260902065015 83 90 3.0 5.0 0.00 0.00 0.00 66 1016.4
20260902064516 83 90 3.0 6.0 0.00 0.00 0.00 66 1016.6
20260902064036 83 90 3.0 5.0 0.00 0.00 0.00 66 1016.7
20260902063536 83 90 2.0 5.0 0.00 0.00 0.00 66 1016.6
20260902063016 83 90 2.0 5.0 0.00 0.00 0.00 65 1016.5
20260902062516 83 90 2.0 6.0 0.00 0.00 0.00 65 1016.5
20260902062015 83 90 3.0 5.0 0.00 0.00 0.00 65 1016.6
20260902061515 84 90 3.0 5.0 0.00 0.00 0.00 65 1016.6
20260902061015 84 90 3.0 5.0 0.00 0.00 0.00 65 1016.7
20260902060515 84 113 3.0 6.0 0.00 0.00 0.00 64 1016.7
20260902060035 84 135 3.0 4.0 0.00 0.00 0.00 64 1016.6
20260902055535 84 135 2.0 4.0 0.00 0.00 0.00 64 1016.6
20260902055015 84 135 2.0 4.0 0.00 0.00 0.00 63 1016.4
20260902054535 85 135 1.0 4.0 0.00 0.00 0.00 63 1016.4
20260902054015 85 135 1.0 4.0 0.00 0.00 0.00 63 1016.4
20260902053516 85 135 2.0 5.0 0.00 0.00 0.00 63 1016.4
20260902053015 85 113 2.0 4.0 0.00 0.00 0.00 62 1016.5
20260902052515 85 113 2.0 5.0 0.00 0.00 0.00 62 1016.4
20260902052015 85 113 2.0 4.0 0.00 0.00 0.00 62 1016.4
20260902051535 85 135 3.0 8.0 0.00 0.00 0.00 62 1016.4
20260902051036 86 135 3.0 8.0 0.00 0.00 0.00 62 1016.4
20260902050515 86 135 3.0 6.0 0.00 0.00 0.00 61 1016.5
20260902050015 86 135 2.0 5.0 0.00 0.00 0.00 61 1016.4
20260902045516 86 135 3.0 9.0 0.00 0.00 0.00 61 1016.5
20260902045016 86 158 3.0 11.0 0.00 0.00 0.00 61 1016.5
20260902044556 86 113 3.0 10.0 0.00 0.00 0.00 61 1016.5
20260902044016 86 135 2.0 4.0 0.00 0.00 0.00 60 1016.4
20260902043516 87 135 2.0 5.0 0.00 0.00 0.00 60 1016.5
20260902043016 87 135 3.0 5.0 0.00 0.00 0.00 60 1016.5
20260902042536 87 135 3.0 9.0 0.00 0.00 0.00 60 1016.5
20260902042017 87 158 2.0 4.0 0.00 0.00 0.00 60 1016.4
20260902041616 87 158 2.0 6.0 0.00 0.00 0.00 59 1016.3
20260902041016 87 135 3.0 9.0 0.00 0.00 0.00 59 1016.4
20260902040516 87 135 3.0 8.0 0.00 0.00 0.00 59 1016.5
20260902040016 87 135 3.0 6.0 0.00 0.00 0.00 59 1016.4
20260902035536 87 158 2.0 6.0 0.00 0.00 0.00 58 1016.3
20260902035016 88 158 2.0 9.0 0.00 0.00 0.00 58 1016.2
20260902034516 88 135 3.0 10.0 0.00 0.00 0.00 58 1016.1
20260902034016 87 135 2.0 7.0 0.00 0.00 0.00 58 1015.9
20260902033536 88 135 2.0 5.0 0.00 0.00 0.00 58 1015.9
20260902033016 88 158 2.0 7.0 0.00 0.00 0.00 58 1015.9
20260902032516 88 158 2.0 8.0 0.00 0.00 0.00 57 1015.7
20260902032016 88 135 2.0 5.0 0.00 0.00 0.00 57 1015.7
20260902031516 88 135 2.0 5.0 0.00 0.00 0.00 57 1015.7
20260902031016 88 158 3.0 7.0 0.00 0.00 0.00 56 1015.7
20260902030516 88 158 2.0 7.0 0.00 0.00 0.00 56 1015.5
20260902030016 88 158 3.0 7.0 0.00 0.00 0.00 56 1015.3
20260902025516 89 158 4.0 9.0 0.00 0.00 0.00 55 1015.2
20260902025016 89 158 3.0 9.0 0.00 0.00 0.00 55 1015.1
20260902024516 89 135 3.0 5.0 0.00 0.00 0.00 55 1015.0
20260902024016 89 135 3.0 7.0 0.00 0.00 0.00 54 1014.9
20260902023515 89 158 2.0 6.0 0.00 0.00 0.00 54 1014.8
20260902023016 89 135 3.0 8.0 0.00 0.00 0.00 54 1014.7
20260902022516 89 135 3.0 8.0 0.00 0.00 0.00 53 1014.6
20260902022036 89 135 2.0 5.0 0.00 0.00 0.00 53 1014.6
20260902021516 90 135 2.0 4.0 0.00 0.00 0.00 52 1014.5
20260902021017 90 135 2.0 4.0 0.00 0.00 0.00 52 1014.3
20260902020516 90 135 3.0 7.0 0.00 0.00 0.00 51 1014.2
20260902020016 90 135 2.0 5.0 0.00 0.00 0.00 51 1014.2
20260902015516 90 135 2.0 5.0 0.00 0.00 0.00 50 1014.2
20260902015015 91 113 2.0 5.0 0.00 0.00 0.00 50 1014.0
20260902014516 91 113 3.0 5.0 0.00 0.00 0.00 49 1014.0
20260902014015 91 113 3.0 8.0 0.00 0.00 0.00 49 1014.1
20260902013556 92 90 4.0 9.0 0.00 0.00 0.00 48 1013.9
20260902013016 92 90 3.0 8.0 0.00 0.00 0.00 47 1013.9
20260902012515 92 90 4.0 7.0 0.00 0.00 0.00 47 1013.8
20260902012016 92 90 3.0 6.0 0.00 0.00 0.00 47 1013.9
20260902011516 92 90 4.0 6.0 0.00 0.00 0.00 46 1013.8
20260902011016 93 90 5.0 9.0 0.00 0.00 0.00 46 1013.7
20260902010515 93 90 4.0 9.0 0.00 0.00 0.00 46 1013.7
20260902010015 93 90 3.0 6.0 0.00 0.00 0.00 45 1013.8
20260902005515 93 90 3.0 8.0 0.00 0.00 0.00 46 1013.7
20260902005016 94 90 4.0 8.0 0.00 0.00 0.00 45 1013.7
20260902004516 94 90 4.0 12.0 0.00 0.00 0.00 45 1013.8
20260902004016 94 90 5.0 10.0 0.00 0.00 0.00 45 1013.8
20260902003536 94 90 5.0 10.0 0.00 0.00 0.00 45 1013.8
20260902003015 95 90 5.0 14.0 0.00 0.00 0.00 44 1013.8
20260902002515 95 90 7.0 14.0 0.00 0.00 0.00 44 1013.9
20260902002015 95 68 5.0 13.0 0.00 0.00 0.00 44 1014.0
20260902001535 95 90 4.0 8.0 0.00 0.00 0.00 44 1014.1
20260902001035 95 90 5.0 10.0 0.00 0.00 0.00 42 1014.0
20260902000515 96 90 6.0 11.0 0.00 0.00 0.00 42 1014.0
20260902000015 96 90 5.0 14.0 0.00 0.00 0.00 42 1013.9
20260901235515 96 90 6.0 12.0 0.00 0.00 0.00 42 1013.9
20260901235015 96 90 6.0 14.0 0.00 0.00 0.00 42 1014.0
20260901234515 96 90 6.0 11.0 0.00 0.00 0.00 42 1013.9
20260901234015 96 68 7.0 14.0 0.00 0.00 0.00 43 1014.0
20260901233515 96 68 6.0 13.0 0.00 0.00 0.00 43 1014.0
20260901233015 96 90 4.0 9.0 0.00 0.00 0.00 42 1014.0
20260901232535 96 90 5.0 9.0 0.00 0.00 0.00 41 1014.1
20260901232015 97 90 7.0 13.0 0.00 0.00 0.00 41 1014.0
20260901231515 97 90 4.0 8.0 0.00 0.00 0.00 41 1014.0
20260901231015 97 90 6.0 12.0 0.00 0.00 0.00 41 1014.0
20260901230515 97 90 6.0 12.0 0.00 0.00 0.00 41 1014.0
20260901230015 97 90 4.0 9.0 0.00 0.00 0.00 41 1014.0
20260901225515 97 90 5.0 11.0 0.00 0.00 0.00 40 1014.1
20260901225015 97 45 5.0 11.0 0.00 0.00 0.00 41 1014.1
20260901224515 98 90 5.0 10.0 0.00 0.00 0.00 41 1014.1
20260901224015 98 90 8.0 13.0 0.00 0.00 0.00 41 1014.2
20260901223515 97 113 6.0 12.0 0.00 0.00 0.00 42 1014.2
20260901223015 98 90 7.0 14.0 0.00 0.00 0.00 41 1014.1
20260901222515 98 45 4.0 9.0 0.00 0.00 0.00 41 1014.2
20260901222015 97 23 6.0 14.0 0.00 0.00 0.00 42 1014.2
20260901221515 96 90 5.0 10.0 0.00 0.00 0.00 42 1014.1
20260901221016 97 90 3.0 6.0 0.00 0.00 0.00 42 1014.2
20260901220515 97 90 3.0 9.0 0.00 0.00 0.00 42 1014.3
20260901220035 98 90 5.0 11.0 0.00 0.00 0.00 41 1014.2
20260901215515 99 90 6.0 12.0 0.00 0.00 0.00 40 1014.3
20260901215015 100 90 6.0 14.0 0.00 0.00 0.00 40 1014.3
20260901214515 99 90 5.0 10.0 0.00 0.00 0.00 40 1014.3
20260901214015 99 90 3.0 6.0 0.00 0.00 0.00 39 1014.2
20260901213515 100 90 3.0 6.0 0.00 0.00 0.00 39 1014.4
20260901213015 100 113 4.0 9.0 0.00 0.00 0.00 41 1014.5
20260901212515 99 135 4.0 9.0 0.00 0.00 0.00 41 1014.3
20260901212035 98 135 3.0 8.0 0.00 0.00 0.00 43 1014.5
20260901211515 98 90 3.0 9.0 0.00 0.00 0.00 41 1014.5
20260901211015 99 90 5.0 12.0 0.00 0.00 0.00 41 1014.8
20260901210515 99 90 4.0 8.0 0.00 0.00 0.00 41 1014.6
20260901210015 98 68 4.0 10.0 0.00 0.00 0.00 42 1014.7
20260901205515 98 90 6.0 12.0 0.00 0.00 0.00 42 1014.8
20260901205015 98 90 5.0 11.0 0.00 0.00 0.00 41 1014.9
20260901204515 99 90 5.0 12.0 0.00 0.00 0.00 40 1014.9
20260901204015 98 68 3.0 7.0 0.00 0.00 0.00 42 1014.9
20260901203515 98 45 5.0 10.0 0.00 0.00 0.00 41 1014.9
20260901203015 98 45 4.0 10.0 0.00 0.00 0.00 42 1015.0
20260901202515 99 90 6.0 11.0 0.00 0.00 0.00 40 1015.1
20260901202015 98 23 5.0 9.0 0.00 0.00 0.00 43 1015.2
20260901201515 96 23 4.0 7.0 0.00 0.00 0.00 44 1015.1
20260901201015 97 45 4.0 9.0 0.00 0.00 0.00 43 1015.3
20260901200515 99 23 6.0 11.0 0.00 0.00 0.00 41 1015.4
20260901200015 100 45 7.0 12.0 0.00 0.00 0.00 41 1015.4
20260901195515 101 90 5.0 14.0 0.00 0.00 0.00 40 1015.6
20260901195035 100 90 5.0 10.0 0.00 0.00 0.00 41 1015.7
20260901194515 99 68 4.0 13.0 0.00 0.00 0.00 41 1015.7
20260901194015 99 90 2.0 6.0 0.00 0.00 0.00 40 1015.7
20260901193515 98 90 5.0 11.0 0.00 0.00 0.00 41 1015.8
20260901193035 97 90 5.0 10.0 0.00 0.00 0.00 42 1015.9
20260901192515 98 45 3.0 9.0 0.00 0.00 0.00 42 1016.0
20260901192015 100 90 5.0 10.0 0.00 0.00 0.00 41 1016.1
20260901191517 98 0 3.0 8.0 0.00 0.00 0.00 42 1016.1
20260901191015 100 90 4.0 10.0 0.00 0.00 0.00 41 1016.3
20260901190519 100 135 4.0 10.0 0.00 0.00 0.00 41 1016.3
20260901190017 99 68 3.0 9.0 0.00 0.00 0.00 43 1016.4
20260901185517 98 68 3.0 7.0 0.00 0.00 0.00 43 1016.4